Location: Perugia
(43.1330°N, 12.3670°E)
Time: 06:48:43
(UTC+01:00)

ISS - Pass Details

Date: 29 January 2021
Orbit: 417 x 422 km, 51.6° (Epoch: 08 March)

Event Time Altitude Azimuth Distance (km) Brightness Sun altitude
Rises 18:01:51 0° 294° (WNW) 2,372 0.9 -8.2°
Reaches altitude 10° 18:04:24 10° 313° (NW) 1,508 -0.5 -8.6°
Maximum altitude 18:06:53 19° 0° (N) 1,082 -1.8 -9.0°
Enters shadow 18:09:15 11° 46° (NE) 1,467 -1.5 -9.5°
